User: anonymous   Login
Location: Unspecified
(0.0000°N, 0.0000°E)
Time: 07:55:38
(UTC+00:00)
Language:

ITUPSAT 1 - Orbit

View from above orbital plane
View from above orbital plane
View from above satellite
View from above satellite

Ground track
Ground track

The orbit data is extracted from the following two-line orbital elements,

1 35935U 09051E   19083.17760861  .00000055  00000-0  23810-4 0  9995
2 35935  98.5916 248.6212 0009304  83.1074 277.1180 14.55512081504051
Epoch (UTC): 24 March 2019 04:15:45
Eccentricity: 0.0009304
inclination: 98.5916°
perigee height: 701 km
apogee height: 714 km
right ascension of ascending node: 248.6212°
argument of perigee: 83.1074°
revolutions per day: 14.55512081
mean anomaly at epoch: 277.1180°
orbit number at epoch: 50405

The dashed part of the orbit path shows where the satellite is in the earth's shadow,  

DLR